Location: Rounton
(54.4000°N, 1.3500°W)
Time: 13:02:53
(UTC+00:00)

Vanguard 2 - Pass Details

Date: 29 November 2021
Orbit: 553 x 2936 km, 32.9° (Epoch: 23 January)

Event Time Altitude Azimuth Distance (km) Brightness Sun altitude
Rises 14:41:55 0° 202° (SSW) 3,507 12.7 5.9°
Reaches altitude 10° 14:46:28 10° 170° (S) 3,029 11.3 5.5°
Maximum altitude 14:48:43 11° 152° (SSE) 3,152 11.0 5.3°
Drops below altitude 10° 14:51:14 10° 135° (SE) 3,532 11.0 5.0°
Sets 14:58:07 0° 108° (ESE) 5,214 11.5 4.4°
